Weather History for Mayport NS, FL

Change the Weather History Date:

Thursday, July 11, 2013

  Actual Average Record
Temperature  
Mean Temperature 80 °F -  
Max Temperature 87 °F 87 °F 97 °F (2000)
Min Temperature 73 °F 73 °F 69 °F (1996)
Cooling Degree Days 14    
Growing Degree Days 30 (Base 50)    
Moisture  
Dew Point 73 °F    
Average Humidity 79    
Maximum Humidity 93    
Minimum Humidity 67    
Precipitation  
Precipitation 0.00 in - - ()
Sea Level Pressure  
Sea Level Pressure 29.97 in    
Wind  
Wind Speed 8 mph (South)    
Max Wind Speed 18 mph    
Max Gust Speed 28 mph    
Visibility 10 miles    
Events Thunderstorm    
Averages and records for this station are not official NWS values.
T = Trace of Precipitation, MM = Missing Value Source: NWS Daily Summary

Daily Weather History Graph

Daily Weather History Graph

Search for Another Location

Airport:

Trip Planner

Search our weather history database for the weather conditions in past years. The results will help you decide how hot, cold, wet, or windy it might be!

Date:

Astronomy

Jul. 11, 2013 Rise Set
Actual Time 6:31 AM EDT 8:30 PM EDT
Civil Twilight 6:04 AM EDT 8:57 PM EDT
Nautical Twilight 5:31 AM EDT 9:30 PM EDT
Astronomical Twilight 4:56 AM EDT 10:05 PM EDT
Moon 9:32 AM EDT (7/11) 10:29 PM EDT (7/11)
Length of Visible Light 14h 52m
Length of Day
13h 58m
Waxing Crescent, 10% of the Moon is Illuminated
Jul 11
Waxing Crescent
Jul 15
First Quarter
Jul 22
Full
Jul 29
Last Quarter
Aug 6
New

Hourly Weather History & Observations

Time (EDT) Temp. Heat Index Dew Point Humidity Pressure Visibility Wind Dir Wind Speed Gust Speed Precip Events Conditions
12:52 AM 77.0 °F - 73.9 °F 90% 30.03 in 10.0 mi SSE 8.1 mph - N/A   Mostly Cloudy
1:52 AM 77.0 °F - 73.0 °F 88% 30.01 in 10.0 mi South 6.9 mph - N/A   Mostly Cloudy
2:52 AM 77.0 °F - 72.0 °F 84% 30.01 in 10.0 mi South 6.9 mph - N/A   Mostly Cloudy
3:52 AM 75.0 °F - 72.0 °F 90% 30.00 in 10.0 mi South 6.9 mph - N/A   Clear
4:52 AM 73.9 °F - 72.0 °F 93% 30.00 in 10.0 mi SSW 4.6 mph - N/A   Clear
5:52 AM 73.9 °F - 72.0 °F 93% 30.00 in 10.0 mi South 5.8 mph - N/A   Scattered Clouds
6:52 AM 73.9 °F - 72.0 °F 93% 30.01 in 10.0 mi SW 6.9 mph - N/A   Scattered Clouds
7:52 AM 75.9 °F - 73.0 °F 91% 30.00 in 10.0 mi South 6.9 mph - N/A   Scattered Clouds
8:52 AM 80.1 °F 84.2 °F 73.0 °F 79% 30.01 in 10.0 mi SSW 9.2 mph - N/A   Scattered Clouds
9:52 AM 82.9 °F 88.8 °F 73.0 °F 72% 30.01 in 10.0 mi South 9.2 mph - N/A   Scattered Clouds
10:52 AM 84.0 °F 90.2 °F 73.0 °F 69% 30.01 in 10.0 mi Variable 3.5 mph - N/A   Mostly Cloudy
11:52 AM 84.0 °F 91.2 °F 73.9 °F 72% 30.00 in 10.0 mi SE 9.2 mph - N/A   Mostly Cloudy
12:52 PM 86.0 °F 93.8 °F 73.9 °F 67% 29.99 in 10.0 mi SE 9.2 mph - N/A   Mostly Cloudy
1:52 PM 86.0 °F 93.8 °F 73.9 °F 67% 29.97 in 10.0 mi ESE 11.5 mph - N/A   Scattered Clouds
2:52 PM 86.0 °F 95.1 °F 75.0 °F 70% 29.96 in 10.0 mi SE 15.0 mph - N/A   Mostly Cloudy
3:52 PM 86.0 °F 93.8 °F 73.9 °F 67% 29.94 in 10.0 mi SE 13.8 mph 21.9 mph N/A   Scattered Clouds
4:52 PM 84.9 °F 92.1 °F 73.9 °F 69% 29.91 in 10.0 mi SE 15.0 mph - N/A   Scattered Clouds
5:52 PM 84.0 °F 91.2 °F 73.9 °F 72% 29.90 in 10.0 mi SSE 16.1 mph 24.2 mph N/A   Scattered Clouds
6:52 PM 81.0 °F 86.2 °F 73.9 °F 79% 29.90 in 10.0 mi SSE 18.4 mph 27.6 mph N/A   Scattered Clouds
7:12 PM 80.6 °F 85.4 °F 73.4 °F 79% 29.93 in 10.0 mi South 15.0 mph - N/A Thunderstorm Scattered Clouds
7:46 PM 80.6 °F 83.9 °F 69.8 °F 70% 29.94 in 10.0 mi SW 6.9 mph - N/A   Mostly Cloudy
7:52 PM 81.0 °F 84.4 °F 70.0 °F 69% 29.95 in 10.0 mi WSW 5.8 mph - N/A   Mostly Cloudy
8:52 PM 80.1 °F 83.2 °F 70.0 °F 71% 29.94 in 10.0 mi WSW 6.9 mph - N/A   Mostly Cloudy
9:52 PM 77.0 °F - 71.1 °F 82% 29.93 in 10.0 mi SSW 6.9 mph - N/A   Mostly Cloudy
10:52 PM 75.0 °F - 71.1 °F 87% 29.93 in 10.0 mi South 5.8 mph - N/A   Mostly Cloudy
11:52 PM 75.0 °F - 71.1 °F 87% 29.95 in 10.0 mi SSW 6.9 mph - N/A   Partly Cloudy